Dean International
Flight School

Career Spotlight

Mika

Mika

Congratulations to Mika from Khazakstan. She recently sent us this photo of her flying an Airbus airliner.

More...
Mika's Success Story
close

Congratulations to Mika from Khazakstan. She recently sent us this photo of her flying an Airbus airliner.

Mario

Mario

My dreams could not have been realized if I wouldn't have been part of the Dean International family.

More...
Mario's Success Story
close

"My dreams could not have been realized if I wouldn't have been part of the Dean International family. Thank you Robert, thanks to all my co-workers, and thanks to all of my students!"

Fernando

Fernando

I am now working as a First Officer at TACA and am enjoying every moment of it.

More...
Fernando's Success Story
close

"Will never forget my time of flight training at Dean International. I am now working as a First Officer at TACA and am enjoying every moment of it."

Alvaro

Alvaro

Because of the flight time I was able to built while instructing, I got the experience needed to apply to an airline in Colombia.

More...
Alvaro's Success Story
close

Dean alumnus Alvaro Londoño currently flies with Tampa Cargo. He says of his experience at Dean: "I want to take this opportunity to thank you for giving me the chance to build my experience and expand my knowledge in Dean International. Because of the flight time I was able to built flight instructing, I got the experience needed to apply to an airline in Colombia."

Ralph

Ralph

Every Aruban student of Dean International has made it into Tiara Air Aruba, that is very nice.

More...
Ralph's Success Story
close

"Next to me is my Co-Pilot, Elison. This picture was taken on our first flight together, which was almost exactly 5 years after I finished at Dean International. [...] Every Aruban student of Dean International has made it into Tiara Air Aruba. [...] The future looks bright here in Aruba."

Rohaan

Rohaan

The [..] staff will all work diligently to help you finish your certificates as safely and efficiently as possible.

More...
Rohaan's Success Story
close

After receiving very hard times from other flight schools [...], I came to Dean International where Robert Dean personally sat down with me and gave me a financial and chronological look into how much remained to finish my private pilot certificate. Through his hard efforts as an instructor and mentor, I was able to finish my private pilot certificate within one week.

Welcome to Dean International

In over two decades, Dean International has educated over 7,000 pilots from all over the world, including over 1,000 students from India alone. By offering a great training experience, a friendly service staff, an ample variety of aircraft, and by improving constantly, we have become one of the largest, most prestigious FAA 141-approved flight schools in North America. Located in Miami, Florida, USA, our flight school offers an ideal location for year-round, "learn to fly" weather, flight training. Dean International is not only well-equipped to provide services to professional trainees but also caters to General Aviation renters. Visit or contact our headquarters at Kendall-Tamiami Executive Airport located in Miami, FL today to learn more about us, or simply read more about our programs if you are an international student interested in joining our school.

Local Airport Information
TAF FOR KTMB (Issued: Mon, October 20th 2014 6:27 PM UTC)
TAF KTMB 201725Z 2018/2118 10010KT P6SM FEW030 BKN040 BKN080
      FM210000 12003KT P6SM FEW030 SCT250
      FM210600 00000KT P6SM VCSH FEW030
      FM211400 VRB03KT P6SM VCSH SCT025 BKN250
     
METAR FOR KTMB (Issued: Mon, October 20th 2014 4:53 PM UTC):
KTMB 201653Z 08014G19KT 10SM FEW032 BKN040 OVC075 30/21 A2999 RMK AO2 SLP155 T03000206

This weather information is provided by the National Weather Service.
It is automatically refreshed every three minutes.
TAF FOR KHST (Issued: Mon, October 20th 2014 4:09 PM UTC)
TAF KHST 2016/2122 11009KT 9999 FEW050 SCT200 QNH2995INS
      TEMPO 2117/2121 19009KT 6000 -TSRA BKN035CB BKN200 TX31/2018Z TN19/2110Z
     
METAR FOR KHST (Issued: Mon, October 20th 2014 4:58 PM UTC):
KHST 201658Z AUTO 08010KT 10SM BKN035 28/20 A2999 RMK AO2 SLP159 T02790203

This weather information is provided by the National Weather Service.
It is automatically refreshed every three minutes.
TAF FOR KOPF (Issued: Mon, October 20th 2014 6:27 PM UTC)
TAF KOPF 201725Z 2018/2118 10008KT P6SM BKN040 BKN060
      FM210000 12004KT P6SM FEW030 SCT250
      FM210600 00000KT P6SM VCSH FEW030
      FM211400 16004KT P6SM VCSH SCT025 BKN250
     
METAR FOR KOPF (Issued: Mon, October 20th 2014 4:53 PM UTC):
KOPF 201653Z 08009KT 10SM BKN042 BKN055 28/20 A3000 RMK AO2 SLP159 T02830200

This weather information is provided by the National Weather Service.
It is automatically refreshed every three minutes.
TAF FOR KMIA (Issued: Mon, October 20th 2014 6:30 PM UTC)
TAF KMIA 201725Z 2018/2118 10008KT P6SM BKN035 BKN070
      FM210000 12004KT P6SM FEW030 SCT250
      FM210600 00000KT P6SM VCSH FEW030 SCT250
      FM211400 16004KT P6SM VCSH SCT025 BKN250
     
METAR FOR KMIA (Issued: Mon, October 20th 2014 4:53 PM UTC):
KMIA 201653Z 08008KT 10SM BKN034 BKN065 28/20 A3000 RMK AO2 SLP158 T02830200

This weather information is provided by the National Weather Service.
It is automatically refreshed every three minutes.
Design by Ariel Llizo
© Dean International Inc. 2012